Find Gals 1

NORAD ID: 22963 Int'l Des: 1994-002 Owner: INFK/LAND Country: RU operational
HEOCIRCULARGSO

Current View

Loading 3D Globe...

About Gals 1

Description loading...

Upcoming Passes

Passes for default location (London). Set your location on the main map for personalized predictions.

Altitude History

Loading altitude history...

Two-Line Element Set

1 22963U 94002A 26151.15486336 .00000074 00000-0 00000+0 0 9998
2 22963 14.5315 353.9816 0010400 232.2819 128.9773 1.00340074118545
Epoch: May 31, 2026 • Age: 8 hours

Current Status

Altitude 35781.5 km
Velocity 3.07 km/s
Sub-Earth Point 12.26°N, 51.65°E
Launch Date Jan 20, 1994
Age 32.3 years
Type other

Technical Details

Classification Payload
Mass 2600.00 kg
Dry Mass 2400.00 kg
Total Mass 2600.00 kg
Length 6.60 m
Diameter 4.10 m
Span 10.00 m
Shape Cyl + 2 Pan
Manufacturer NPOPMR
Bus Type Gals
Phase Status Unknown Active Status
Owner/State INFK/LAND/RU

Most Searched